Terminal Aerodrome Forecast
Issued by NWS Springfield, MO

Home | Current Version | Previous Version | Text Only | Print | Product List | Glossary On
Versions: 1 2 3 4 5 6 7 8 9 10 11 12 13 14 15 16 17 18 19 20 21 22 23 24 25 26 27 28 29 30 31 32 33 34 35 36
000
FTUS43 KSGF 180900 AAC
TAFSGF
TAF AMD
KSGF 180921Z 1809/1906 16006KT 4SM -RA BR BKN003 OVC010
      TEMPO 1809/1812 2SM -TSRA OVC003CB
     FM181500 10008KT 6SM BR OVC015
     FM181900 10008KT P6SM SCT030 BKN050=

USA.gov is the U.S. government's official web portal to all federal, state and local government web resources and services.